GFSSE_925_temp_336.txt.gz
Temp
20 20 21 22 21 21 21 21 21 21 21 21 21 21 21 20 20 20 20 20 19 19 19 19 19 20 19 19 19 19 19 18 18 18 18 18 17 17 17 17 17 17 17
22 20 21 21 21 21 21 21 20 20 21 21 21 21 21 20 20 20 19 19 19 19 18 19 19 20 19 19 19 19 18 18 18 18 18 17 17 17 17 17 17 17 17
21 21 21 21 21 21 20 20 20 20 20 21 21 21 21 20 19 19 19 19 19 19 18 19 19 19 19 20 19 18 18 18 17 17 17 17 16 16 16 17 16 16 16
21 20 21 21 21 21 20 20 20 20 20 20 20 20 20 20 20 19 19 19 19 19 18 18 18 18 19 19 19 18 18 17 17 17 17 17 16 16 16 16 16 16 15
21 21 21 20 20 20 19 19 20 20 20 20 20 20 20 20 20 19 19 19 19 18 18 18 18 19 19 18 18 17 17 17 17 17 16 16 16 16 15 15 16 16 15
20 21 21 20 20 20 20 20 19 20 20 20 20 20 20 20 20 19 20 19 19 19 18 18 20 20 18 18 17 18 17 18 17 17 16 16 16 15 14 14 14 14 13
20 21 21 20 19 20 20 19 19 19 19 20 20 20 20 20 19 19 19 19 19 19 18 20 20 19 18 18 17 17 18 17 17 17 16 16 15 14 14 13 13 13 13
21 21 20 20 19 19 19 19 19 19 19 19 19 19 19 19 19 19 19 19 19 20 20 20 19 19 18 18 17 17 18 17 17 16 15 14 14 14 13 13 13 13 13
21 20 20 19 19 19 19 19 19 19 19 19 19 19 19 19 19 19 19 20 20 20 20 19 19 19 18 18 17 18 18 17 17 15 14 14 13 14 13 13 13 13 12
21 21 20 19 19 19 18 19 19 19 19 19 19 18 18 19 19 19 19 20 20 21 19 19 19 18 18 17 18 17 17 17 16 15 13 13 13 13 13 13 13 12 12
19 20 19 19 19 18 18 18 18 18 18 19 18 18 18 18 19 18 19 20 20 20 20 20 19 18 18 17 18 17 18 17 16 14 13 13 13 13 13 12 12 12 12
18 19 19 19 19 18 18 18 18 18 18 18 18 17 17 18 18 18 18 19 20 19 20 20 18 18 17 17 17 18 17 16 15 13 13 13 13 13 12 12 12 12 12
20 19 20 19 19 18 17 18 17 17 17 17 17 17 17 17 17 17 17 18 19 19 19 19 18 18 18 18 17 17 16 16 14 13 13 13 13 13 12 12 12 12 11
19 19 19 19 19 18 18 18 17 17 17 16 17 17 17 17 16 16 16 17 18 17 18 18 18 18 18 18 17 16 16 15 14 13 13 12 13 12 12 12 12 11 11
19 19 20 19 19 18 18 17 17 17 17 16 17 17 16 16 16 16 15 15 17 16 18 18 18 17 17 17 17 17 16 15 14 13 13 12 12 12 12 12 12 11 11
19 19 20 19 19 19 17 17 17 17 17 17 17 17 17 16 16 15 15 15 16 16 17 18 18 17 17 17 16 16 16 15 14 13 13 12 12 12 12 12 12 11 11
20 20 20 19 19 19 17 17 17 17 16 17 16 17 17 17 16 16 16 16 15 16 18 18 18 17 17 16 16 16 17 15 14 13 12 12 12 12 12 12 11 11 11
20 20 20 19 19 19 17 17 17 17 17 17 17 16 17 16 16 16 16 16 17 17 18 18 17 16 16 16 15 16 16 15 14 14 13 12 12 12 12 11 11 11 11
16 19 19 19 18 18 17 17 17 17 17 17 16 16 16 16 17 16 16 16 16 17 17 17 16 16 15 15 15 15 16 15 14 13 13 13 13 12 12 11 11 10 10
10 18 19 19 18 18 18 17 17 17 17 16 16 16 17 16 16 15 16 17 17 17 17 17 17 16 15 15 14 14 14 14 14 14 13 13 13 13 12 12 11 10 10
8 11 19 19 18 18 17 17 17 16 16 16 15 16 16 16 16 16 16 18 17 17 17 17 16 15 14 15 14 13 13 13 13 13 13 13 13 13 13 13 12 11 10
6 7 8 13 18 18 17 17 17 16 16 16 15 15 16 15 15 16 17 18 18 17 16 16 15 14 13 14 14 13 12 13 14 14 13 14 14 13 13 13 12 12 11
6 6 7 8 12 18 17 17 17 16 16 15 15 15 15 15 16 16 16 18 17 17 15 16 15 15 14 14 15 15 13 14 13 14 14 13 14 14 13 13 13 13 12
6 6 6 7 10 16 17 17 17 17 16 16 15 15 15 15 15 16 14 15 16 16 15 15 15 15 14 14 14 17 17 15 12 12 14 14 13 13 14 13 13 13 13
5 6 6 7 8 13 16 17 17 17 16 16 15 15 14 14 14 15 15 16 17 17 15 15 15 15 16 15 15 16 16 15 15 13 13 13 14 13 13 13 14 14 13
5 5 5 6 7 8 12 14 17 17 17 16 16 15 15 15 14 15 15 14 15 15 15 15 15 15 15 15 15 15 16 15 15 14 11 11 13 14 14 14 14 14 14

GFSSE_925_temp_339.txt.gz
Temp
20 21 21 21 22 21 21 21 22 22 22 21 21 21 21 21 20 20 19 19 19 20 21 21 21 21 19 18 18 18 18 18 18 18 18 17 17 17 17 17 17 17 17
21 21 21 21 21 21 21 21 21 21 21 21 21 21 20 20 20 20 19 19 19 20 19 20 20 20 18 18 19 18 18 18 18 18 18 18 17 17 16 17 17 16 16
22 21 21 21 21 20 20 21 21 21 21 21 21 21 21 20 20 19 20 19 19 20 19 18 19 18 17 18 18 18 18 17 18 18 17 17 17 17 16 16 16 16 17
22 21 20 21 21 20 20 21 21 21 21 21 21 20 20 20 19 19 20 19 19 19 19 18 18 17 18 19 18 17 17 18 18 17 17 17 17 16 16 16 16 16 15
21 21 20 21 20 20 20 20 21 21 20 20 20 20 20 19 19 20 20 19 19 18 18 18 17 18 19 18 17 17 17 17 17 17 16 17 17 16 16 15 15 16 15
21 20 20 20 20 20 20 20 20 20 20 20 20 20 20 20 20 20 19 19 19 18 18 17 18 18 18 17 17 17 17 17 16 16 16 16 16 15 15 15 14 14 14
20 20 20 20 20 20 19 19 20 20 20 20 20 20 20 20 20 20 19 19 18 18 18 18 18 18 17 17 17 17 17 17 16 16 16 15 15 14 14 13 13 13 13
21 20 19 19 20 20 19 19 20 20 20 20 20 20 19 19 18 19 19 18 18 18 18 18 18 17 18 17 17 17 17 17 17 16 15 14 14 14 13 13 13 13 13
20 20 19 19 19 19 19 19 19 19 19 20 20 19 19 19 18 19 19 18 18 18 19 18 18 17 17 17 17 17 17 17 16 15 14 14 14 13 13 13 13 13 13
19 19 19 19 19 19 19 19 19 19 19 19 19 19 19 18 18 19 19 18 18 19 19 18 18 17 17 17 17 17 17 17 16 14 13 13 13 13 13 13 13 13 12
18 19 19 19 18 18 18 18 18 19 19 19 19 19 19 18 18 19 19 18 19 19 19 18 18 17 18 17 17 17 17 16 15 14 13 13 13 13 13 13 12 12 12
18 18 18 19 18 18 18 18 18 18 19 18 18 18 18 18 18 19 19 19 19 19 18 18 17 17 18 17 17 16 16 16 15 13 14 13 13 13 13 12 12 12 12
19 18 18 18 18 18 18 17 18 18 18 18 18 18 18 17 17 18 18 18 18 18 18 18 17 18 17 17 17 16 16 15 14 13 13 13 13 13 13 12 12 12 12
18 19 18 18 18 17 17 18 17 17 17 17 18 18 17 16 16 18 18 17 18 18 17 17 17 17 18 18 17 16 16 15 14 13 13 13 13 13 12 12 12 12 11
18 18 18 18 17 17 17 17 17 17 17 16 16 17 17 16 16 17 17 17 17 17 17 17 17 17 17 17 16 17 15 15 14 13 12 12 12 12 12 12 12 11 11
11 17 18 18 17 18 17 17 17 17 16 16 16 16 16 16 16 16 16 15 16 16 16 17 17 17 17 17 16 16 15 15 14 13 12 12 12 12 12 12 12 12 11
8 10 17 18 18 17 17 17 17 16 16 16 16 16 16 16 16 16 16 15 15 16 16 17 17 17 17 16 16 16 15 15 14 13 12 12 12 12 12 12 12 12 11
7 7 13 18 18 18 17 16 17 16 17 17 16 16 16 16 16 16 16 15 15 15 15 16 17 17 17 16 15 15 14 15 14 13 13 12 12 12 12 12 11 11 11
6 7 12 17 17 18 17 16 16 16 17 16 16 16 17 16 16 15 15 15 14 14 15 15 16 17 16 15 14 15 14 16 14 13 13 13 12 12 12 11 11 11 11
5 6 7 11 17 17 17 17 16 17 16 16 16 16 16 15 16 16 15 15 15 15 15 16 16 17 16 15 14 14 14 15 14 14 13 13 13 13 12 12 11 11 10
5 6 6 6 11 15 17 17 17 16 16 16 16 16 16 16 16 16 16 15 16 16 15 16 15 15 14 14 13 13 13 13 14 13 13 13 13 13 12 12 12 11 10
5 5 6 6 7 11 15 16 16 16 16 16 16 16 16 16 15 16 17 16 16 16 15 15 15 15 14 14 14 13 12 12 13 13 13 13 13 13 13 12 12 12 11
5 5 5 5 6 8 13 16 16 16 16 16 15 16 16 16 16 16 15 15 16 17 16 15 15 15 14 14 14 15 13 14 13 13 13 13 13 13 13 13 13 12 12
5 4 5 4 5 7 9 15 17 17 16 16 15 15 15 16 15 14 14 15 15 17 16 15 15 15 14 14 13 15 16 15 13 12 13 13 13 13 13 13 13 13 12
4 4 4 4 5 6 7 11 14 16 16 16 15 15 15 15 15 15 15 15 15 17 16 16 15 14 15 14 14 14 15 15 15 13 13 12 12 13 13 13 13 13 13
4 4 4 4 4 5 6 8 10 15 16 16 15 15 15 15 14 15 16 15 16 15 17 16 15 15 14 15 14 16 16 15 13 13 11 11 13 12 13 14 13 13 13

GFSSE_925_temp_342.txt.gz
Temp
20 21 20 21 21 21 21 21 21 21 21 21 21 21 21 20 20 20 20 20 20 19 19 20 20 20 18 18 18 18 17 18 17 18 18 17 17 17 17 17 17 16 16
22 21 20 21 21 21 21 22 22 21 21 21 21 21 21 20 20 20 20 20 20 19 20 21 20 19 18 17 18 18 18 18 18 18 18 18 18 17 16 17 17 16 16
22 21 20 21 21 21 21 21 21 21 21 21 21 21 20 20 20 20 19 20 20 19 20 20 19 18 17 18 18 18 18 18 17 18 17 17 17 16 16 16 16 16 16
23 21 20 21 21 21 21 21 21 21 21 21 21 20 20 20 20 19 19 19 19 19 19 18 18 17 17 18 18 17 17 18 18 18 17 17 17 16 16 16 16 15 16
20 21 20 21 21 21 21 20 21 21 21 21 21 20 20 20 19 19 19 19 19 19 19 18 17 17 19 18 18 17 18 18 17 16 17 17 17 16 15 15 15 16 16
20 20 20 20 20 20 20 20 20 20 20 21 21 20 20 20 19 19 19 19 19 19 19 18 17 18 18 18 17 17 17 17 16 16 16 17 16 15 15 15 15 14 14
20 20 20 20 20 20 20 20 20 20 20 20 20 20 20 20 19 19 19 19 19 19 18 17 17 18 18 17 17 17 17 16 16 16 16 15 15 15 14 14 13 13 13
20 20 20 20 19 20 20 20 20 19 20 20 20 20 20 19 18 18 19 19 19 18 18 17 17 17 17 17 17 17 17 16 16 15 15 14 14 14 13 13 13 13 13
21 20 20 19 19 19 19 19 19 19 19 20 20 20 19 19 18 17 18 19 18 18 17 17 17 17 17 17 17 17 17 16 16 15 14 14 14 14 13 13 13 13 13
20 20 19 19 19 19 19 19 19 19 19 20 20 19 19 18 17 17 18 19 18 17 17 17 17 17 17 17 17 17 16 16 15 14 13 14 14 14 13 13 13 13 12
18 19 18 18 18 18 18 19 19 19 19 19 20 19 19 18 17 17 18 18 18 17 17 17 17 17 17 17 17 16 16 15 15 14 14 13 14 13 13 13 13 12 12
17 17 18 18 18 18 18 18 18 18 19 19 19 19 18 18 17 17 17 18 17 17 17 17 17 17 17 16 16 16 16 15 15 14 14 13 13 13 13 13 12 12 12
13 16 17 18 18 17 18 18 18 18 18 18 18 18 18 17 16 16 16 16 16 17 17 17 17 17 17 17 16 16 15 15 14 13 13 13 13 13 13 12 12 12 11
9 13 16 17 17 17 17 17 17 17 18 18 18 18 18 17 17 16 16 17 16 16 16 17 17 17 17 17 17 16 15 15 14 13 13 13 13 13 13 13 12 12 12
7 10 13 15 17 17 17 17 17 17 17 17 17 18 18 17 17 16 16 17 16 16 16 16 17 17 17 16 16 16 15 15 14 13 13 12 13 13 13 13 12 12 11
5 7 11 13 15 16 17 17 17 17 17 17 17 17 17 17 16 16 16 16 16 16 16 17 17 17 16 16 16 15 15 15 14 13 12 12 12 12 12 12 12 12 11
5 6 8 10 14 16 17 17 16 17 17 17 16 16 17 17 16 16 16 16 16 16 16 16 16 16 16 15 16 15 15 14 14 13 13 12 12 12 12 12 12 12 11
5 5 7 9 13 15 17 16 16 17 16 17 16 16 16 16 16 16 16 15 16 16 16 16 16 15 15 15 15 15 14 14 14 13 13 12 12 12 12 12 12 11 11
5 5 6 7 9 12 16 16 16 17 16 17 16 16 16 16 16 16 15 15 14 14 15 15 15 16 15 14 15 15 14 13 14 13 13 12 12 12 12 12 11 11 11
4 5 6 5 8 10 13 16 16 17 16 16 16 16 16 16 16 16 16 15 14 13 14 15 15 15 16 16 14 14 13 13 14 14 13 13 12 12 12 12 11 11 11
4 4 5 5 5 7 9 11 16 16 16 16 16 16 16 16 16 16 15 15 14 13 14 15 15 15 14 15 13 12 12 12 12 14 13 13 12 12 12 12 12 11 11
4 4 4 4 4 6 7 9 13 16 16 16 16 16 16 16 16 16 15 15 14 13 14 15 15 14 13 14 14 13 12 12 12 13 13 13 13 12 12 12 12 11 11
3 4 4 4 4 4 6 8 13 16 16 16 16 16 16 16 15 16 16 15 16 15 14 14 15 14 14 14 14 15 13 14 12 12 12 13 13 13 12 12 12 12 12
3 3 3 3 3 4 5 6 8 12 16 16 16 16 16 16 16 16 15 15 15 15 15 16 16 15 14 14 13 15 15 15 14 13 12 12 13 13 13 13 13 13 12
2 3 3 3 3 3 3 5 6 8 13 16 16 15 15 15 16 16 15 15 15 15 15 15 15 15 15 14 14 14 14 14 15 12 13 11 12 14 13 13 13 13 13
2 3 3 3 3 3 3 4 5 6 8 13 16 15 15 15 15 15 15 16 15 15 15 15 14 15 14 14 14 15 15 14 13 13 11 10 12 12 13 13 13 13 13

GFSSE_925_temp_345.txt.gz
Temp
21 21 22 21 21 21 21 21 21 21 22 21 21 21 20 21 21 20 20 20 20 19 19 19 19 19 18 18 18 18 18 18 18 18 18 17 17 17 17 17 17 17 17
23 20 21 22 21 21 21 21 21 21 21 21 21 21 20 21 21 20 20 20 20 19 19 19 19 18 18 18 19 18 18 18 18 18 18 17 17 17 16 17 17 17 16
20 19 21 22 21 21 21 21 21 21 21 21 21 21 21 21 20 20 20 20 20 19 19 19 18 18 17 19 18 18 18 18 18 17 18 18 17 16 16 16 16 16 15
19 19 19 21 21 21 21 21 20 20 20 20 20 20 21 20 20 20 20 20 20 19 19 18 18 17 18 18 18 18 18 18 18 18 18 18 17 16 16 16 16 15 15
19 19 19 20 20 20 21 20 20 20 20 20 20 20 20 20 20 20 20 20 20 19 19 18 18 17 18 18 18 18 18 18 18 18 18 17 17 16 16 16 16 16 15
19 19 20 21 20 20 20 20 20 20 20 20 20 21 20 20 20 20 20 20 19 19 19 18 17 18 18 18 18 18 18 17 18 18 17 16 16 15 15 15 16 14 14
19 19 20 20 20 20 20 20 20 20 20 20 20 20 20 20 20 19 19 19 19 19 18 17 17 18 18 18 18 17 17 17 18 17 16 16 16 15 15 14 14 13 13
18 19 19 20 20 20 20 20 20 20 20 20 20 20 20 20 19 18 19 19 19 19 18 17 18 18 18 17 17 17 16 16 17 16 15 15 15 14 14 13 13 13 13
17 18 19 18 18 19 19 19 19 19 20 20 20 20 20 19 18 18 18 19 18 18 18 17 18 18 17 17 17 17 16 16 17 16 14 14 14 14 14 13 13 13 13
17 17 17 17 17 18 18 19 19 19 19 20 20 20 19 18 18 17 18 18 18 18 18 17 18 17 17 17 17 16 16 16 16 16 15 14 14 14 13 13 13 13 13
16 16 16 17 18 18 19 18 19 19 19 19 20 19 19 18 18 17 17 17 18 18 17 17 17 17 17 17 16 16 16 16 16 16 15 14 14 14 14 13 13 12 12
10 14 15 16 16 17 17 18 18 18 18 19 19 19 18 18 17 17 17 17 19 17 17 17 17 17 16 15 15 16 16 15 16 15 15 14 14 14 13 13 13 13 12
7 9 13 14 16 16 17 17 18 18 18 18 18 17 17 17 16 16 16 16 17 17 16 16 17 16 16 16 15 15 15 15 15 15 14 13 14 13 13 13 13 12 12
7 7 10 13 14 16 16 17 17 17 17 17 18 17 17 16 16 16 16 16 17 17 16 16 16 16 15 15 15 14 15 15 15 15 14 13 13 13 13 13 12 12 11
7 7 7 10 12 14 16 17 17 17 17 17 17 17 17 16 16 16 16 16 16 16 16 16 16 15 15 14 14 14 14 14 14 15 14 13 13 13 13 13 13 12 11
6 7 7 8 10 13 15 16 17 17 17 17 17 17 17 16 16 15 16 15 16 16 16 16 15 15 15 15 14 14 14 14 14 14 14 13 13 13 13 13 13 12 12
6 6 7 8 8 11 14 16 17 17 16 16 17 17 17 16 16 16 16 15 15 16 16 15 15 15 16 15 14 14 14 14 14 13 13 13 13 12 13 13 12 12 12
6 6 6 7 7 9 13 15 16 17 16 16 17 16 16 16 16 16 15 15 15 16 16 15 16 15 15 14 14 14 14 14 13 13 13 13 13 13 12 12 12 12 12
5 5 6 6 6 6 11 14 15 16 16 17 16 17 16 16 16 16 15 14 15 16 16 15 15 17 14 14 15 14 13 14 13 13 13 13 13 13 13 12 12 12 11
5 5 5 5 5 6 7 12 15 16 16 16 16 16 16 16 16 16 15 15 14 14 15 15 15 15 15 15 14 13 13 13 13 13 13 13 13 12 12 12 12 12 11
4 4 5 5 5 5 5 7 11 13 16 16 16 16 17 16 16 16 15 15 15 14 15 15 15 15 14 14 13 12 12 12 12 13 13 13 12 12 12 12 12 12 11
4 4 4 4 4 4 4 5 7 9 14 16 16 16 16 16 16 16 16 15 15 14 13 14 15 14 14 13 14 13 13 12 12 12 13 13 12 12 12 11 12 12 12
4 4 4 4 4 4 3 4 6 11 14 16 16 16 16 16 16 15 15 15 15 14 13 13 14 14 14 13 14 15 14 14 13 13 12 13 12 12 12 12 11 11 11
3 3 3 3 3 4 3 3 4 6 8 12 15 16 16 16 16 16 15 15 15 14 14 14 13 14 14 14 13 15 16 16 17 14 13 13 13 12 12 12 12 11 11
4 3 3 3 3 3 3 3 4 5 6 8 12 16 16 16 16 16 15 15 14 14 14 14 14 14 14 14 14 14 14 14 15 18 16 13 12 13 13 12 12 12 11
4 4 3 3 3 3 3 3 3 4 6 7 9 14 16 16 16 15 15 15 14 14 14 14 14 14 14 14 15 15 16 17 16 17 17 14 13 13 13 13 12 12 12

GFSSE_925_temp_351.txt.gz
Temp
29 22 22 21 20 20 20 20 20 21 21 21 21 21 21 20 21 21 20 20 20 20 19 19 19 20 20 19 20 21 21 20 19 19 18 18 18 18 18 18 19 18 17
27 22 21 21 21 21 20 20 20 20 21 21 21 21 21 21 21 20 20 20 20 20 19 19 18 18 18 19 19 20 19 19 19 18 18 18 17 17 18 18 18 17 17
27 22 21 20 20 20 20 19 19 20 20 21 21 21 21 21 20 21 20 20 20 20 19 18 18 18 18 19 19 19 19 19 19 20 19 19 18 17 17 17 16 16 16
27 24 22 20 20 20 20 20 19 20 20 21 21 21 21 21 21 21 20 20 20 19 18 18 18 18 18 18 19 19 19 20 20 20 20 19 18 16 16 16 16 15 15
26 24 21 20 20 20 20 19 19 20 20 21 21 21 21 21 20 20 20 20 19 19 18 18 18 17 18 18 19 19 20 21 21 21 22 19 18 16 16 16 15 16 16
20 21 20 20 19 20 20 20 20 20 21 20 21 21 21 20 20 20 20 19 19 19 19 18 18 18 19 19 19 19 20 21 22 23 20 18 17 16 15 16 16 15 15
17 18 20 19 19 19 19 20 19 20 20 20 20 21 20 20 20 20 20 19 19 19 18 18 18 18 18 18 18 19 21 21 22 22 19 17 16 15 15 15 14 14 14
16 16 17 17 19 20 19 19 20 20 20 20 20 20 20 20 20 19 19 19 19 19 19 18 18 18 18 18 19 19 20 21 23 21 18 16 16 15 15 14 14 14 14
16 17 16 18 18 17 20 20 19 19 20 20 20 20 20 20 19 19 18 17 18 19 19 18 18 18 18 18 18 19 20 21 22 20 17 16 15 15 14 14 14 14 13
13 15 13 16 17 17 17 19 20 19 19 19 20 19 19 19 19 19 18 17 17 18 18 18 18 18 18 18 18 19 20 21 22 20 19 15 15 15 14 14 14 13 14
13 13 12 12 14 17 17 19 19 20 20 19 19 19 19 18 18 18 18 17 17 17 18 18 18 18 18 18 18 19 20 22 22 22 18 15 15 15 14 14 14 14 13
12 13 12 13 13 13 15 17 18 19 20 20 20 19 19 18 18 17 17 17 17 17 18 18 17 18 17 17 17 19 19 22 22 21 17 15 15 14 14 14 13 14 13
11 13 12 13 14 13 13 14 18 18 19 19 19 19 18 18 17 17 17 17 17 17 17 17 17 17 19 19 19 19 21 21 22 19 15 15 15 14 14 13 13 13 13
15 14 13 13 13 14 13 13 14 17 19 19 18 18 18 17 17 16 16 16 16 17 17 17 18 19 20 21 19 20 21 21 21 18 15 14 15 14 14 14 13 13 13
15 14 13 13 13 13 14 14 14 15 18 20 19 18 18 17 16 16 16 16 16 17 17 18 19 20 19 20 20 20 20 20 20 19 16 14 14 14 14 13 13 13 13
14 14 13 13 12 12 13 13 13 15 16 18 18 18 18 17 17 16 16 15 16 17 17 18 20 20 19 18 19 19 19 19 19 19 16 14 14 14 14 13 13 13 12
14 13 12 13 12 11 12 12 13 15 16 17 18 18 17 17 17 16 16 16 16 16 17 18 19 18 18 18 18 18 18 18 19 19 17 15 14 14 13 14 13 13 12
13 12 12 12 11 10 11 12 13 14 14 16 17 18 18 17 17 16 16 16 16 16 16 16 17 17 17 17 18 18 17 18 18 18 17 16 15 15 14 14 13 13 12
12 11 11 11 11 10 11 12 12 12 13 15 17 17 17 17 17 17 16 16 16 16 16 16 16 16 17 17 18 18 18 18 18 18 18 18 17 16 15 13 13 13 12
12 11 10 10 10 9 10 11 11 12 11 13 15 16 17 17 17 16 16 16 16 16 16 16 16 16 16 17 17 18 17 18 18 18 18 18 17 17 16 14 13 13 12
11 10 10 10 9 9 8 8 9 9 10 11 13 15 16 17 16 16 16 16 16 16 15 15 15 15 15 16 17 17 16 16 17 18 18 18 18 17 17 15 14 14 12
11 10 10 9 9 9 7 7 7 7 9 9 10 13 15 16 16 16 16 15 15 15 15 15 15 15 15 16 15 13 13 14 15 16 17 17 17 17 17 16 15 16 14
10 9 9 9 9 9 7 6 6 7 7 8 7 10 13 14 15 16 16 16 15 15 15 15 15 14 14 14 15 15 13 14 15 15 16 17 17 17 18 17 16 16 16
9 9 9 8 9 8 8 6 6 5 5 6 7 7 9 11 14 16 16 16 16 15 15 15 14 14 14 14 14 15 16 15 15 15 16 16 17 17 17 17 16 16 16
9 9 8 8 8 8 8 7 6 6 5 5 6 6 7 10 13 15 16 16 16 15 15 14 14 14 14 14 14 14 14 15 17 17 18 16 16 16 17 17 17 16 16
8 8 8 7 8 7 7 6 6 5 5 5 5 5 6 7 10 13 15 16 16 15 14 15 15 15 14 14 14 14 15 15 15 16 17 18 17 17 16 16 17 17 17